リニア彗星

217P/LINEAR (2017)

English version
Home page
Updated on July 6, 2017

---------------------------------------------------------------------

・ プロフィール

・ 写真集

・ 軌道要素

Epoch 2017 July 26.0 TT = JDT 2457960.5
T 2017 July 16.56436 TT                                 MPCW
q   1.2353816            (2000.0)            P               Q
n   0.12522699     Peri.  246.95161     +0.95786049     -0.22282717
a   3.9567392      Node   125.45408     +0.26627133     +0.92548811
e   0.6877779      Incl.   12.85628     -0.10771655     +0.30630019
P   7.87
From 2432 observations 2001 June 21-2017 May 5, mean residual 0".6.
     Nongravitational parameters A1 = +0.22, A2 = +0.0032.

・ 星図

・ 光度変化

        H = 14.0  G = 0.15                       [    ,-190]  (              〜2017年 1月 7日)
        m1 = 9.5 + 5 logΔ + 16.0 log r(t - 30)  [-190, 310]  (2017年 1月 7日〜2018年 5月22日)
        H = 14.0  G = 0.15                       [ 310,    ]  (2018年 5月22日〜              )

---------------------------------------------------------------------

軌道要素はM.P.E.C. 2017-J52に掲載されたものです。
星図はステラナビゲータ Ver.8 (アストロアーツ) で作成したものです。
光度グラフはComet for Windowsで作成したものです。

---------------------------------------------------------------------

Copyright(C) Seiichi Yoshida (comet@aerith.net). All rights reserved.